Selinsgrove, PA

5:25 PM EST on December 05, 2019 (GMT -0500)
Penn Valley

Weather History for KSEG - November, 2019

Change the Weather History Date:

Wednesday, November 20, 2019

  Actual Average (KIPT) Record (KIPT)
Temperature  
Mean Temperature 42 °F -  
Max Temperature 48 °F 46 °F 73 °F (1942)
Min Temperature 34 °F 30 °F 17 °F (1986)
Degree Days  
Heating Degree Days 22    
Moisture  
Dew Point 33 °F    
Average Humidity 71    
Maximum Humidity 93    
Minimum Humidity 48    
Precipitation  
Precipitation 0.00 in - - ()
Sea Level Pressure  
Sea Level Pressure 30.05 in    
Wind  
Wind Speed 3 mph (NW)    
Max Wind Speed 13 mph    
Max Gust Speed 21 mph    
Visibility 9 miles    
Events      
Averages and records for this station are not official NWS values.
T = Trace of Precipitation, MM = Missing Value Source: NWS Daily Summary

Daily Weather History Graph

Daily Weather History Graph

Search for Another Location

Airport or City:

Astronomy

Nov. 20, 2019 Rise Set
Actual Time 7:00 AM EST 4:45 PM EST
Civil Twilight 6:30 AM EST 5:15 PM EST
Nautical Twilight 5:56 AM EST 5:48 PM EST
Astronomical Twilight 5:24 AM EST 6:21 PM EST
Moon No Moon Rise 1:43 PM EST (11/20)
Length of Visible Light 10h 45m
Length of Day
9h 45m
Last Quarter, 41% of the Moon is Illuminated
Nov 20
Last Quarter
Nov 26
New
Dec 4
First Quarter
Dec 12
Full
Dec 18
Last Quarter

Hourly Weather History & Observations

Time (EST) Temp. Windchill Dew Point Humidity Pressure Visibility Wind Dir Wind Speed Gust Speed Precip Events Conditions
12:53 AM 37.0 °F - 34.0 °F 89% 29.91 in 8.0 mi Calm Calm - N/A   Overcast
1:53 AM 37.0 °F - 34.0 °F 89% 29.92 in 7.0 mi Calm Calm - N/A   Overcast
2:53 AM 37.0 °F - 35.1 °F 93% 29.93 in 7.0 mi Calm Calm - N/A   Overcast
3:53 AM 37.0 °F - 34.0 °F 89% 29.95 in 9.0 mi Calm Calm - N/A   Overcast
4:53 AM 37.9 °F - 35.1 °F 89% 29.96 in 9.0 mi Calm Calm - N/A   Overcast
5:38 AM 37.9 °F - 35.1 °F 89% 29.96 in 8.0 mi Calm Calm - N/A   Overcast
5:53 AM 37.9 °F - 35.1 °F 89% 29.98 in 8.0 mi Calm Calm - N/A   Overcast
6:14 AM 37.9 °F - 35.1 °F 89% 29.97 in 9.0 mi Calm Calm - N/A   Overcast
6:53 AM 37.9 °F 35.5 °F 35.1 °F 89% 30.01 in 9.0 mi NNW 3.5 mph - N/A   Overcast
7:53 AM 39.9 °F 36.7 °F 35.1 °F 83% 30.03 in 10.0 mi North 4.6 mph - N/A   Overcast
8:53 AM 42.1 °F 40.2 °F 35.1 °F 76% 30.04 in 10.0 mi North 3.5 mph - N/A   Overcast
9:53 AM 44.1 °F 41.5 °F 35.1 °F 71% 30.06 in 10.0 mi North 4.6 mph - N/A   Overcast
10:44 AM 45.0 °F 40.6 °F 34.0 °F 65% 30.06 in 10.0 mi NW 8.1 mph - N/A   Overcast
10:53 AM 45.0 °F 41.2 °F 34.0 °F 65% 30.06 in 10.0 mi NW 6.9 mph - N/A   Overcast
11:53 AM 46.9 °F - 34.0 °F 61% 30.06 in 10.0 mi NNW 6.9 mph - N/A   Overcast
12:53 PM 48.0 °F - 33.1 °F 56% 30.05 in 10.0 mi NNW 8.1 mph - N/A   Overcast
1:53 PM 48.0 °F - 30.9 °F 52% 30.06 in 10.0 mi NW 10.4 mph - N/A   Overcast
2:53 PM 48.9 °F - 30.0 °F 48% 30.07 in 10.0 mi NW 12.7 mph 20.7 mph N/A   Overcast
3:53 PM 48.0 °F - 30.0 °F 50% 30.10 in 10.0 mi NNW 9.2 mph - N/A   Overcast
4:53 PM 46.9 °F - 30.0 °F 52% 30.12 in 10.0 mi NW 6.9 mph - N/A   Overcast
5:53 PM 46.9 °F - 30.0 °F 52% 30.14 in 10.0 mi WNW 6.9 mph - N/A   Overcast
6:53 PM 46.0 °F 41.9 °F 30.0 °F 54% 30.16 in 10.0 mi NW 8.1 mph 18.4 mph N/A   Overcast
7:53 PM 45.0 °F 40.1 °F 30.0 °F 56% 30.18 in 10.0 mi WNW 9.2 mph - N/A   Overcast
8:53 PM 44.1 °F 40.1 °F 30.0 °F 58% 30.19 in 10.0 mi WNW 6.9 mph - N/A   Partly Cloudy
9:53 PM 42.1 °F 39.2 °F 28.9 °F 60% 30.20 in 10.0 mi WNW 4.6 mph - N/A   Clear
11:53 PM 34.0 °F 29.8 °F 27.0 °F 75% 30.22 in 10.0 mi North 4.6 mph - N/A   Clear